AAL1738 MBPV-KPHL

Flight info

Callsign AAL1738
Flight time 2h 50m
Altitude 35000
Route EGANN G629 LYMIN DCT LETON/M079F350 DCT KASAR/M079F340 L452 WILYY/M079F350 DCT STERN Y488 CHUBY/M079F340 Y488 HOBOH/M079F350 DCT SILLY/N0456F340 DCT BOJAN B24 DASHA JIIMS4
Aircraft A321/M-SDE3FGHIRWY/LB1

Departure

Time 2026-04-23 20:51
Airport Providenciales International Airport (MBPV)

Arrival

Time 2026-04-23 23:41
Airport Philadelphia International Airport (KPHL)
Time Latitude Longitude Altitude Speed Heading
2026-04-23 20:05 21.77610 -72.27354 41 ft 0 kts 33°
2026-04-23 20:44 21.77596 -72.27365 41 ft 4 kts 32°
2026-04-23 20:44 21.77573 -72.27379 42 ft 4 kts 27°
2026-04-23 20:45 21.77548 -72.27391 40 ft 4 kts 11°
2026-04-23 20:45 21.77527 -72.27391 38 ft 4 kts 303°
2026-04-23 20:45 21.77524 -72.27387 40 ft 0 kts 271°
2026-04-23 20:47 21.77525 -72.27390 40 ft 2 kts 271°
2026-04-23 20:47 21.77525 -72.27430 41 ft 8 kts 270°
2026-04-23 20:47 21.77488 -72.27462 40 ft 9 kts 185°
2026-04-23 20:48 21.77418 -72.27475 38 ft 10 kts 219°
2026-04-23 20:48 21.77405 -72.27555 38 ft 14 kts 273°
2026-04-23 20:48 21.77412 -72.27683 37 ft 20 kts 273°
2026-04-23 20:48 21.77421 -72.27855 38 ft 26 kts 273°
2026-04-23 20:49 21.77432 -72.28054 37 ft 27 kts 273°
2026-04-23 20:49 21.77470 -72.28179 37 ft 12 kts 290°
2026-04-23 20:49 21.77447 -72.28200 37 ft 3 kts 143°
2026-04-23 20:49 21.77442 -72.28184 37 ft 3 kts 101°
2026-04-23 20:50 21.77432 -72.28083 37 ft 38 kts 93°
2026-04-23 20:50 21.77406 -72.27551 38 ft 103 kts 94°
2026-04-23 20:50 21.77359 -72.26578 38 ft 156 kts 93°
2026-04-23 20:50 21.77271 -72.25330 437 ft 165 kts 90°
2026-04-23 20:51 21.77198 -72.24122 1211 ft 160 kts 88°
2026-04-23 20:51 21.77152 -72.22898 1756 ft 168 kts 83°
2026-04-23 20:51 21.77654 -72.21734 1915 ft 188 kts 41°
2026-04-23 20:51 21.78953 -72.21303 2118 ft 215 kts 359°
2026-04-23 20:52 21.80511 -72.21497 2392 ft 236 kts 356°
2026-04-23 20:52 21.82208 -72.21713 2731 ft 253 kts 356°
2026-04-23 20:52 21.83964 -72.21926 3354 ft 259 kts 358°
2026-04-23 20:52 21.85765 -72.22118 3979 ft 263 kts 356°
2026-04-23 20:53 21.87608 -72.22291 4608 ft 268 kts 356°
2026-04-23 20:53 21.89486 -72.22450 5229 ft 273 kts 355°
2026-04-23 20:53 21.91397 -72.22599 5878 ft 277 kts 355°
2026-04-23 20:53 21.93336 -72.22742 6517 ft 281 kts 354°
2026-04-23 20:54 21.95281 -72.22886 7116 ft 284 kts 354°
2026-04-23 20:54 21.97252 -72.23032 7755 ft 286 kts 353°
2026-04-23 20:54 21.99246 -72.23179 8382 ft 288 kts 353°
2026-04-23 20:54 22.01223 -72.23324 9022 ft 291 kts 353°
2026-04-23 20:55 22.03269 -72.23260 9635 ft 297 kts
2026-04-23 20:55 22.05333 -72.22993 10204 ft 300 kts
2026-04-23 20:55 22.07473 -72.22719 10352 ft 320 kts
2026-04-23 20:55 22.09732 -72.22431 10483 ft 339 kts
2026-04-23 20:56 22.12170 -72.22116 10610 ft 358 kts
2026-04-23 20:56 22.14696 -72.21786 10727 ft 375 kts
2026-04-23 20:56 22.17338 -72.21439 11004 ft 386 kts
2026-04-23 20:56 22.20002 -72.21088 11469 ft 390 kts
2026-04-23 20:57 22.22723 -72.20730 11994 ft 393 kts
2026-04-23 20:57 22.25447 -72.20374 12519 ft 396 kts
2026-04-23 20:57 22.28159 -72.20022 13033 ft 400 kts
2026-04-23 20:57 22.30929 -72.19665 13548 ft 402 kts
2026-04-23 20:58 22.33721 -72.19307 14046 ft 406 kts
2026-04-23 20:58 22.36534 -72.18944 14516 ft 408 kts
2026-04-23 20:58 22.39360 -72.18577 14999 ft 411 kts
2026-04-23 20:58 22.42201 -72.18207 15476 ft 414 kts
2026-04-23 20:59 22.45085 -72.17831 15982 ft 416 kts
2026-04-23 20:59 22.47967 -72.17458 16446 ft 419 kts
2026-04-23 20:59 22.50866 -72.17086 16919 ft 422 kts
2026-04-23 20:59 22.53787 -72.16715 17383 ft 424 kts
2026-04-23 21:00 22.56696 -72.16341 17811 ft 427 kts
2026-04-23 21:00 22.59651 -72.15960 18231 ft 430 kts
2026-04-23 21:00 22.62636 -72.15572 18602 ft 432 kts
2026-04-23 21:00 22.65625 -72.15181 18953 ft 434 kts
2026-04-23 21:01 22.68632 -72.14787 19306 ft 437 kts
2026-04-23 21:01 22.71657 -72.14396 19651 ft 439 kts
2026-04-23 21:01 22.74703 -72.14029 20026 ft 440 kts
2026-04-23 21:01 22.77750 -72.13763 20379 ft 441 kts 359°
2026-04-23 21:02 22.80833 -72.13571 20715 ft 443 kts 358°
2026-04-23 21:02 22.83885 -72.13420 21043 ft 445 kts 358°
2026-04-23 21:02 22.86982 -72.13275 21373 ft 448 kts 358°
2026-04-23 21:02 22.90093 -72.13115 21699 ft 450 kts 358°
2026-04-23 21:03 22.93242 -72.12933 22028 ft 453 kts 358°
2026-04-23 21:03 22.96402 -72.12733 22344 ft 455 kts 358°
2026-04-23 21:03 22.99572 -72.12522 22669 ft 458 kts 358°
2026-04-23 21:03 23.02739 -72.12310 22987 ft 460 kts 358°
2026-04-23 21:04 23.05970 -72.12095 23321 ft 463 kts 358°
2026-04-23 21:04 23.09147 -72.11885 23624 ft 465 kts 358°
2026-04-23 21:04 23.12381 -72.11676 23892 ft 467 kts 358°
2026-04-23 21:04 23.15610 -72.11470 24154 ft 469 kts 358°
2026-04-23 21:05 23.18893 -72.11257 24411 ft 471 kts 358°
2026-04-23 21:05 23.22171 -72.11043 24683 ft 473 kts 358°
2026-04-23 21:05 23.25476 -72.10828 24940 ft 475 kts 357°
2026-04-23 21:05 23.28779 -72.10617 25200 ft 477 kts 357°
2026-04-23 21:06 23.32096 -72.10403 25467 ft 479 kts 357°
2026-04-23 21:06 23.35439 -72.10185 25743 ft 481 kts 357°
2026-04-23 21:06 23.38741 -72.09970 25987 ft 483 kts 356°
2026-04-23 21:06 23.42151 -72.09750 26263 ft 485 kts 356°
2026-04-23 21:07 23.45485 -72.09539 26499 ft 487 kts 356°
2026-04-23 21:07 23.48865 -72.09324 26835 ft 487 kts 356°
2026-04-23 21:07 23.52255 -72.09104 27206 ft 486 kts 356°
2026-04-23 21:07 23.55625 -72.08884 27533 ft 486 kts 356°
2026-04-23 21:08 23.58991 -72.08662 27885 ft 485 kts 356°
2026-04-23 21:08 23.62365 -72.08441 28229 ft 485 kts 355°
2026-04-23 21:08 23.65730 -72.08220 28570 ft 484 kts 355°
2026-04-23 21:08 23.69096 -72.07998 28908 ft 484 kts 355°
2026-04-23 21:09 23.72449 -72.07780 29251 ft 483 kts 355°
2026-04-23 21:09 23.75753 -72.07565 29585 ft 483 kts 355°
2026-04-23 21:09 23.79110 -72.07350 29917 ft 482 kts 355°
2026-04-23 21:09 23.82454 -72.07138 30229 ft 482 kts 354°
2026-04-23 21:10 23.85806 -72.06927 30507 ft 482 kts 354°
2026-04-23 21:10 23.89151 -72.06713 30799 ft 481 kts 354°
2026-04-23 21:10 23.92486 -72.06498 31065 ft 480 kts 354°
2026-04-23 21:10 23.95829 -72.06280 31369 ft 480 kts 354°
2026-04-23 21:11 23.99150 -72.06061 31654 ft 479 kts 354°
2026-04-23 21:11 24.02438 -72.05843 31930 ft 478 kts 354°
2026-04-23 21:11 24.05748 -72.05624 32203 ft 477 kts 354°
2026-04-23 21:11 24.09047 -72.05402 32480 ft 477 kts 353°
2026-04-23 21:12 24.12370 -72.05179 32741 ft 476 kts 353°
2026-04-23 21:12 24.15683 -72.04960 33011 ft 475 kts 353°
2026-04-23 21:12 24.18984 -72.04745 33277 ft 475 kts 353°
2026-04-23 21:12 24.22277 -72.04530 33537 ft 474 kts 353°
2026-04-23 21:13 24.25563 -72.04317 33826 ft 473 kts 352°
2026-04-23 21:13 24.28842 -72.04103 34105 ft 472 kts 352°
2026-04-23 21:13 24.32077 -72.03890 34321 ft 471 kts 352°
2026-04-23 21:13 24.35354 -72.03678 34514 ft 471 kts 352°
2026-04-23 21:14 24.38622 -72.03466 34705 ft 471 kts 352°
2026-04-23 21:14 24.41896 -72.03253 34897 ft 471 kts 352°
2026-04-23 21:14 24.45170 -72.03041 35032 ft 472 kts 352°
2026-04-23 21:14 24.48448 -72.02829 35070 ft 473 kts 352°
2026-04-23 21:15 24.55026 -72.02388 35113 ft 473 kts 352°
2026-04-23 21:15 24.61543 -72.01944 35074 ft 472 kts 352°
2026-04-23 21:16 24.68100 -72.01514 35076 ft 471 kts 352°
2026-04-23 21:16 24.74646 -72.01101 35077 ft 471 kts 352°
2026-04-23 21:17 24.81203 -72.00668 35085 ft 472 kts 352°
2026-04-23 21:17 24.87724 -72.00230 35111 ft 472 kts 352°
2026-04-23 21:18 24.94278 -71.99796 35111 ft 472 kts 352°
2026-04-23 21:18 25.00839 -71.99363 35108 ft 471 kts 351°
2026-04-23 21:19 25.07358 -71.99141 35105 ft 468 kts 349°
2026-04-23 21:19 25.13856 -71.99072 35133 ft 467 kts 349°
2026-04-23 21:20 25.20286 -71.98982 35103 ft 464 kts 349°
2026-04-23 21:20 25.26750 -71.98842 35101 ft 465 kts 349°
2026-04-23 21:21 25.33231 -71.98695 35106 ft 465 kts 349°
2026-04-23 21:21 25.39701 -71.98553 35107 ft 465 kts 349°
2026-04-23 21:22 25.46164 -71.98405 35088 ft 463 kts 350°
2026-04-23 21:22 25.52547 -71.98260 35088 ft 461 kts 350°
2026-04-23 21:23 25.58961 -71.98119 35096 ft 461 kts 350°
2026-04-23 21:23 25.65379 -71.97974 35103 ft 462 kts 350°
2026-04-23 21:24 25.71811 -71.97832 35110 ft 462 kts 349°
2026-04-23 21:24 25.77149 -71.97721 35117 ft 461 kts 350°
2026-04-23 21:25 25.84601 -71.97562 35116 ft 461 kts 350°
2026-04-23 21:25 25.91017 -71.97419 35116 ft 461 kts 350°
2026-04-23 21:26 25.97435 -71.97269 35119 ft 461 kts 350°
2026-04-23 21:26 26.02768 -71.97139 35155 ft 461 kts 351°
2026-04-23 21:27 26.10193 -71.96968 35106 ft 458 kts 351°
2026-04-23 21:27 26.16574 -71.96831 35111 ft 459 kts 351°
2026-04-23 21:28 26.21876 -71.96726 35116 ft 459 kts 351°
2026-04-23 21:28 26.28264 -71.96581 35120 ft 460 kts 351°
2026-04-23 21:29 26.34674 -71.96434 35150 ft 460 kts 351°
2026-04-23 21:29 26.41056 -71.96296 35140 ft 460 kts 351°
2026-04-23 21:30 26.47475 -71.96156 35138 ft 460 kts 351°
2026-04-23 21:30 26.53819 -71.96007 35128 ft 460 kts 351°
2026-04-23 21:31 26.60228 -71.95858 35143 ft 460 kts 351°
2026-04-23 21:31 26.66604 -71.95717 35133 ft 460 kts 351°
2026-04-23 21:32 26.73025 -71.95570 35130 ft 460 kts 351°
2026-04-23 21:32 26.79366 -71.95423 35136 ft 460 kts 351°
2026-04-23 21:33 26.85767 -71.95289 35138 ft 459 kts 351°
2026-04-23 21:33 26.92168 -71.95148 35148 ft 459 kts 352°
2026-04-23 21:34 26.98531 -71.95004 35140 ft 458 kts 352°
2026-04-23 21:34 27.04910 -71.94857 35140 ft 458 kts 352°
2026-04-23 21:35 27.11292 -71.94706 35139 ft 458 kts 352°
2026-04-23 21:35 27.17617 -71.94560 35141 ft 458 kts 352°
2026-04-23 21:36 27.27126 -71.94350 35118 ft 455 kts 352°
2026-04-23 21:37 27.33457 -71.94211 35122 ft 455 kts 352°
2026-04-23 21:37 27.39797 -71.94064 35127 ft 456 kts 352°
2026-04-23 21:38 27.46104 -71.93917 35130 ft 456 kts 352°
2026-04-23 21:38 27.52444 -71.93776 35146 ft 456 kts 353°
2026-04-23 21:39 27.58794 -71.93623 35144 ft 456 kts 353°
2026-04-23 21:39 27.65141 -71.93474 35142 ft 456 kts 353°
2026-04-23 21:40 27.71445 -71.93330 35141 ft 456 kts 353°
2026-04-23 21:40 27.77788 -71.93188 35155 ft 456 kts 353°
2026-04-23 21:41 27.84138 -71.93050 35149 ft 456 kts 353°
2026-04-23 21:41 27.90484 -71.92899 35146 ft 456 kts 353°
2026-04-23 21:42 27.96786 -71.92754 35148 ft 457 kts 353°
2026-04-23 21:42 28.03145 -71.92613 35172 ft 456 kts 353°
2026-04-23 21:43 28.09501 -71.92468 35158 ft 457 kts 354°
2026-04-23 21:43 28.15834 -71.92316 35157 ft 456 kts 354°
2026-04-23 21:44 28.22196 -71.92162 35151 ft 456 kts 354°
2026-04-23 21:44 28.28489 -71.92022 35152 ft 456 kts 354°
2026-04-23 21:45 28.34681 -71.92637 35159 ft 442 kts 340°
2026-04-23 21:45 28.40648 -71.94336 35146 ft 442 kts 340°
2026-04-23 21:46 28.46604 -71.96021 35144 ft 442 kts 340°
2026-04-23 21:46 28.52534 -71.97687 35150 ft 442 kts 340°
2026-04-23 21:47 28.58439 -71.99353 35147 ft 442 kts 340°
2026-04-23 21:47 28.64482 -72.00701 35164 ft 449 kts 352°
2026-04-23 21:48 28.70733 -72.01044 35158 ft 450 kts 352°
2026-04-23 21:48 28.76986 -72.01346 35156 ft 450 kts 352°
2026-04-23 21:49 28.83201 -72.01635 35159 ft 451 kts 352°
2026-04-23 21:49 28.89471 -72.01941 35170 ft 450 kts 352°
2026-04-23 21:50 28.95724 -72.02260 35170 ft 450 kts 353°
2026-04-23 21:50 29.01997 -72.02572 35166 ft 450 kts 352°
2026-04-23 21:51 29.08205 -72.02885 35160 ft 450 kts 352°
2026-04-23 21:51 29.14450 -72.03200 35159 ft 450 kts 353°
2026-04-23 21:52 29.20691 -72.03511 35170 ft 449 kts 353°
2026-04-23 21:52 29.26947 -72.03821 35165 ft 449 kts 353°
2026-04-23 21:53 29.33129 -72.04132 35161 ft 449 kts 353°
2026-04-23 21:53 29.39387 -72.04450 35161 ft 449 kts 353°
2026-04-23 21:54 29.45635 -72.04764 35164 ft 449 kts 353°
2026-04-23 21:54 29.51867 -72.05076 35164 ft 449 kts 353°
2026-04-23 21:55 29.58122 -72.05392 35163 ft 449 kts 353°
2026-04-23 21:55 29.64319 -72.05709 35163 ft 449 kts 353°
2026-04-23 21:56 29.70553 -72.06025 35163 ft 449 kts 353°
2026-04-23 21:56 29.76809 -72.06336 35174 ft 449 kts 353°
2026-04-23 21:57 29.83046 -72.06649 35167 ft 449 kts 353°
2026-04-23 21:57 29.89287 -72.06982 35165 ft 448 kts 353°
2026-04-23 21:58 29.95507 -72.07301 35161 ft 448 kts 353°
2026-04-23 21:58 30.01706 -72.07618 35173 ft 448 kts 353°
2026-04-23 21:59 30.07938 -72.07939 35171 ft 448 kts 353°
2026-04-23 21:59 30.14166 -72.08248 35172 ft 448 kts 353°
2026-04-23 22:00 30.23489 -72.08715 35160 ft 447 kts 353°
2026-04-23 22:00 30.29663 -72.09030 35178 ft 447 kts 353°
2026-04-23 22:01 30.35874 -72.09349 35169 ft 446 kts 353°
2026-04-23 22:01 30.42067 -72.09667 35160 ft 445 kts 353°
2026-04-23 22:02 30.48257 -72.09987 35167 ft 445 kts 353°
2026-04-23 22:02 30.54444 -72.10310 35173 ft 444 kts 353°
2026-04-23 22:03 30.60574 -72.10630 35174 ft 444 kts 353°
2026-04-23 22:03 30.66740 -72.10938 35160 ft 443 kts 353°
2026-04-23 22:04 30.72892 -72.11250 35160 ft 443 kts 353°
2026-04-23 22:04 30.79048 -72.11572 35158 ft 442 kts 353°
2026-04-23 22:05 30.85147 -72.11891 35166 ft 442 kts 353°
2026-04-23 22:05 30.91283 -72.12210 35159 ft 441 kts 353°
2026-04-23 22:06 30.97412 -72.12532 35154 ft 440 kts 353°
2026-04-23 22:06 31.03534 -72.12853 35149 ft 440 kts 353°
2026-04-23 22:07 31.09622 -72.13163 35168 ft 440 kts 353°
2026-04-23 22:07 31.15734 -72.13482 35155 ft 440 kts 353°
2026-04-23 22:08 31.21839 -72.13804 35151 ft 439 kts 354°
2026-04-23 22:08 31.27935 -72.14123 35150 ft 439 kts 354°
2026-04-23 22:09 31.34038 -72.14439 35148 ft 439 kts 354°
2026-04-23 22:09 31.40096 -72.14754 35152 ft 438 kts 354°
2026-04-23 22:10 31.46185 -72.15076 35147 ft 438 kts 354°
2026-04-23 22:10 31.52267 -72.15392 35145 ft 438 kts 354°
2026-04-23 22:11 31.58355 -72.15717 35138 ft 437 kts 354°
2026-04-23 22:11 31.64434 -72.16038 35151 ft 437 kts 354°
2026-04-23 22:12 31.70470 -72.16349 35141 ft 436 kts 354°
2026-04-23 22:12 31.76528 -72.16668 35137 ft 436 kts 354°
2026-04-23 22:13 31.82575 -72.17001 35135 ft 435 kts 354°
2026-04-23 22:13 31.88633 -72.17313 35142 ft 435 kts 354°
2026-04-23 22:14 31.94662 -72.17626 35136 ft 434 kts 354°
2026-04-23 22:14 32.00652 -72.17946 35128 ft 433 kts 354°
2026-04-23 22:15 32.06671 -72.18275 35126 ft 433 kts 354°
2026-04-23 22:15 32.12708 -72.18592 35122 ft 433 kts 354°
2026-04-23 22:16 32.18731 -72.18910 35118 ft 433 kts 354°
2026-04-23 22:16 32.24709 -72.19223 35114 ft 433 kts 354°
2026-04-23 22:17 32.30717 -72.19552 35112 ft 433 kts 354°
2026-04-23 22:17 32.36743 -72.19877 35112 ft 433 kts 354°
2026-04-23 22:18 32.42766 -72.20199 35126 ft 434 kts 354°
2026-04-23 22:18 32.48799 -72.20519 35120 ft 433 kts 354°
2026-04-23 22:19 32.54784 -72.20845 35111 ft 433 kts 354°
2026-04-23 22:19 32.60803 -72.21165 35109 ft 433 kts 354°
2026-04-23 22:20 32.66819 -72.21491 35121 ft 433 kts 354°
2026-04-23 22:20 32.72829 -72.21820 35110 ft 432 kts 354°
2026-04-23 22:21 32.78803 -72.22139 35106 ft 432 kts 354°
2026-04-23 22:21 32.84791 -72.22459 35100 ft 431 kts 354°
2026-04-23 22:22 32.90789 -72.22779 35095 ft 431 kts 354°
2026-04-23 22:22 32.96784 -72.23106 35092 ft 430 kts 354°
2026-04-23 22:23 33.02726 -72.23435 35090 ft 430 kts 354°
2026-04-23 22:23 33.08690 -72.23759 35083 ft 430 kts 354°
2026-04-23 22:24 33.14666 -72.24085 35080 ft 429 kts 354°
2026-04-23 22:24 33.20635 -72.24414 35097 ft 429 kts 354°
2026-04-23 22:25 33.26563 -72.24739 35083 ft 429 kts 354°
2026-04-23 22:25 33.32511 -72.25059 35084 ft 428 kts 354°
2026-04-23 22:26 33.38450 -72.25382 35080 ft 428 kts 354°
2026-04-23 22:26 33.44412 -72.25707 35081 ft 428 kts 354°
2026-04-23 22:27 33.50353 -72.26029 35079 ft 427 kts 354°
2026-04-23 22:27 33.56240 -72.26359 35075 ft 426 kts 354°
2026-04-23 22:28 33.62166 -72.26684 35074 ft 426 kts 354°
2026-04-23 22:28 33.68092 -72.27004 35068 ft 426 kts 354°
2026-04-23 22:29 33.74011 -72.27335 35077 ft 425 kts 354°
2026-04-23 22:29 33.79922 -72.27664 35069 ft 425 kts 354°
2026-04-23 22:30 33.85758 -72.27987 35062 ft 424 kts 354°
2026-04-23 22:30 33.91666 -72.28314 35059 ft 424 kts 354°
2026-04-23 22:31 33.97563 -72.28640 35068 ft 424 kts 354°
2026-04-23 22:31 34.03442 -72.28970 35063 ft 423 kts 354°
2026-04-23 22:32 34.09286 -72.29293 35058 ft 423 kts 354°
2026-04-23 22:32 34.15158 -72.29618 35048 ft 422 kts 354°
2026-04-23 22:33 34.21023 -72.29938 35058 ft 422 kts 355°
2026-04-23 22:33 34.26890 -72.30268 35058 ft 422 kts 354°
2026-04-23 22:34 34.32748 -72.30603 35047 ft 421 kts 354°
2026-04-23 22:34 34.38563 -72.30931 35045 ft 421 kts 354°
2026-04-23 22:35 34.44407 -72.31263 35043 ft 421 kts 354°
2026-04-23 22:35 34.50262 -72.31593 35057 ft 420 kts 355°
2026-04-23 22:36 34.56098 -72.31905 35048 ft 420 kts 355°
2026-04-23 22:36 34.61936 -72.32234 35047 ft 419 kts 355°
2026-04-23 22:37 34.67719 -72.32567 35046 ft 419 kts 355°
2026-04-23 22:37 34.73553 -72.32894 35042 ft 419 kts 355°
2026-04-23 22:38 34.79384 -72.33229 35035 ft 419 kts 355°
2026-04-23 22:38 34.85204 -72.33561 35036 ft 419 kts 355°
2026-04-23 22:39 34.91033 -72.33886 35039 ft 419 kts 355°
2026-04-23 22:39 34.96749 -72.34202 35038 ft 419 kts 356°
2026-04-23 22:40 35.02586 -72.34274 35041 ft 419 kts 359°
2026-04-23 22:41 35.11322 -72.34021 35040 ft 418 kts 359°
2026-04-23 22:41 35.17134 -72.33902 35037 ft 418 kts 358°
2026-04-23 22:42 35.22891 -72.33834 35049 ft 417 kts 358°
2026-04-23 22:42 35.28685 -72.33763 35044 ft 416 kts 358°
2026-04-23 22:43 35.34478 -72.33684 35039 ft 415 kts 358°
2026-04-23 22:43 35.40247 -72.33602 35035 ft 415 kts 358°
2026-04-23 22:44 35.45983 -72.33515 35042 ft 415 kts 358°
2026-04-23 22:44 35.51749 -72.33436 35036 ft 414 kts 358°
2026-04-23 22:45 35.57507 -72.33352 35027 ft 414 kts 358°
2026-04-23 22:45 35.63267 -72.33268 35026 ft 414 kts 358°
2026-04-23 22:46 35.68976 -72.33178 35048 ft 413 kts 358°
2026-04-23 22:46 35.74722 -72.33094 35035 ft 412 kts 358°
2026-04-23 22:47 35.80455 -72.33016 35028 ft 412 kts 358°
2026-04-23 22:47 35.86184 -72.32937 35024 ft 411 kts 358°
2026-04-23 22:48 35.91912 -72.32851 35031 ft 411 kts 357°
2026-04-23 22:48 35.97561 -72.32763 35024 ft 410 kts 357°
2026-04-23 22:49 36.03273 -72.32764 35019 ft 408 kts 352°
2026-04-23 22:49 36.08778 -72.34208 35025 ft 404 kts 343°
2026-04-23 22:50 36.14224 -72.35968 35022 ft 405 kts 343°
2026-04-23 22:50 36.19637 -72.37723 35037 ft 404 kts 343°
2026-04-23 22:51 36.25069 -72.39478 35018 ft 403 kts 343°
2026-04-23 22:51 36.30497 -72.41239 35019 ft 403 kts 343°
2026-04-23 22:52 36.35910 -72.43003 35018 ft 403 kts 343°
2026-04-23 22:52 36.41297 -72.44747 35034 ft 402 kts 343°
2026-04-23 22:53 36.46698 -72.46512 35025 ft 402 kts 343°
2026-04-23 22:53 36.52108 -72.48277 35024 ft 401 kts 343°
2026-04-23 22:54 36.57510 -72.50046 35024 ft 401 kts 343°
2026-04-23 22:54 36.62912 -72.51811 35023 ft 401 kts 343°
2026-04-23 22:55 36.68259 -72.53566 35041 ft 401 kts 343°
2026-04-23 22:55 36.73820 -72.54298 35033 ft 404 kts 355°
2026-04-23 22:56 36.79448 -72.54405 35030 ft 404 kts 355°
2026-04-23 22:56 36.85050 -72.54516 35028 ft 403 kts 355°
2026-04-23 22:57 36.90655 -72.54646 35047 ft 403 kts 355°
2026-04-23 22:57 36.96221 -72.54769 35038 ft 402 kts 355°
2026-04-23 22:58 37.01810 -72.54893 35032 ft 401 kts 355°
2026-04-23 22:58 37.07392 -72.55009 35026 ft 401 kts 355°
2026-04-23 22:59 37.12961 -72.55131 35026 ft 401 kts 355°
2026-04-23 22:59 37.18505 -72.55255 35029 ft 401 kts 355°
2026-04-23 23:00 37.24017 -72.55930 35026 ft 395 kts 342°
2026-04-23 23:00 37.29201 -72.58143 35023 ft 394 kts 339°
2026-04-23 23:01 37.34364 -72.60421 35009 ft 394 kts 339°
2026-04-23 23:01 37.39540 -72.62697 35032 ft 394 kts 339°
2026-04-23 23:02 37.44623 -72.64931 35031 ft 393 kts 339°
2026-04-23 23:02 37.49843 -72.67215 35023 ft 393 kts 339°
2026-04-23 23:03 37.54999 -72.69480 35021 ft 393 kts 339°
2026-04-23 23:03 37.60107 -72.71730 35020 ft 392 kts 339°
2026-04-23 23:04 37.65259 -72.74014 35035 ft 392 kts 339°
2026-04-23 23:04 37.70399 -72.76294 35029 ft 391 kts 339°
2026-04-23 23:05 37.75520 -72.78568 35022 ft 390 kts 339°
2026-04-23 23:05 37.80645 -72.80848 35019 ft 390 kts 339°
2026-04-23 23:06 37.85733 -72.83114 35047 ft 390 kts 339°
2026-04-23 23:06 37.90835 -72.85388 35036 ft 389 kts 338°
2026-04-23 23:07 37.95930 -72.87656 35023 ft 388 kts 338°
2026-04-23 23:07 38.01017 -72.89926 35017 ft 387 kts 338°
2026-04-23 23:08 38.06100 -72.92199 35017 ft 387 kts 338°
2026-04-23 23:08 38.11170 -72.94468 35028 ft 386 kts 338°
2026-04-23 23:09 38.16133 -72.97015 34996 ft 384 kts 328°
2026-04-23 23:09 38.20097 -73.01507 34993 ft 386 kts 309°
2026-04-23 23:10 38.23031 -73.07203 34995 ft 388 kts 306°
2026-04-23 23:10 38.25968 -73.12980 34992 ft 389 kts 306°
2026-04-23 23:11 38.28904 -73.18761 34992 ft 389 kts 306°
2026-04-23 23:11 38.31839 -73.24560 34996 ft 390 kts 306°
2026-04-23 23:12 38.34769 -73.30362 34978 ft 390 kts 306°
2026-04-23 23:12 38.37692 -73.36161 34982 ft 391 kts 306°
2026-04-23 23:13 38.40629 -73.42002 35000 ft 392 kts 305°
2026-04-23 23:13 38.43566 -73.47841 35005 ft 391 kts 305°
2026-04-23 23:14 38.46546 -73.53644 35003 ft 390 kts 306°
2026-04-23 23:14 38.49552 -73.59330 35003 ft 390 kts 306°
2026-04-23 23:15 38.52577 -73.65074 35005 ft 390 kts 306°
2026-04-23 23:15 38.55539 -73.70929 34696 ft 392 kts 304°
2026-04-23 23:15 38.56999 -73.73859 34450 ft 392 kts 304°
2026-04-23 23:16 38.58469 -73.76814 34210 ft 393 kts 304°
2026-04-23 23:16 38.59919 -73.79715 33978 ft 394 kts 305°
2026-04-23 23:16 38.61407 -73.82671 33709 ft 395 kts 305°
2026-04-23 23:16 38.62896 -73.85625 33438 ft 396 kts 305°
2026-04-23 23:17 38.64382 -73.88583 33166 ft 397 kts 305°
2026-04-23 23:17 38.65875 -73.91564 32904 ft 398 kts 305°
2026-04-23 23:17 38.67370 -73.94552 32636 ft 400 kts 305°
2026-04-23 23:17 38.68874 -73.97557 32366 ft 401 kts 305°
2026-04-23 23:18 38.70382 -74.00565 32111 ft 401 kts 304°
2026-04-23 23:18 38.71884 -74.03570 31867 ft 402 kts 304°
2026-04-23 23:18 38.73371 -74.06557 31604 ft 403 kts 304°
2026-04-23 23:18 38.74876 -74.09588 31355 ft 405 kts 304°
2026-04-23 23:19 38.76376 -74.12620 31107 ft 406 kts 304°
2026-04-23 23:19 38.77891 -74.15681 30859 ft 407 kts 304°
2026-04-23 23:19 38.79406 -74.18741 30611 ft 409 kts 305°
2026-04-23 23:19 38.80941 -74.21829 30375 ft 410 kts 305°
2026-04-23 23:20 38.82474 -74.24914 30130 ft 411 kts 305°
2026-04-23 23:20 38.84001 -74.27998 29854 ft 412 kts 305°
2026-04-23 23:20 38.85520 -74.31076 29590 ft 413 kts 305°
2026-04-23 23:20 38.87059 -74.34186 29320 ft 414 kts 305°
2026-04-23 23:21 38.88605 -74.37313 29005 ft 416 kts 304°
2026-04-23 23:21 38.90163 -74.40465 28728 ft 419 kts 304°
2026-04-23 23:21 38.91721 -74.43628 28463 ft 420 kts 304°
2026-04-23 23:21 38.93282 -74.46805 28195 ft 421 kts 304°
2026-04-23 23:22 38.94846 -74.49994 27930 ft 422 kts 304°
2026-04-23 23:22 38.96409 -74.53187 27665 ft 423 kts 304°
2026-04-23 23:22 38.97973 -74.56372 27406 ft 423 kts 304°
2026-04-23 23:22 38.99528 -74.59540 27147 ft 424 kts 304°
2026-04-23 23:23 39.01102 -74.62752 26894 ft 424 kts 304°
2026-04-23 23:23 39.02667 -74.65954 26651 ft 423 kts 304°
2026-04-23 23:23 39.04228 -74.69150 26404 ft 423 kts 303°
2026-04-23 23:23 39.05802 -74.72372 26146 ft 424 kts 303°
2026-04-23 23:24 39.07483 -74.75481 25886 ft 423 kts 310°
2026-04-23 23:24 39.09525 -74.78196 24956 ft 424 kts 319°
2026-04-23 23:24 39.11956 -74.80382 23900 ft 430 kts 329°
2026-04-23 23:24 39.14704 -74.81961 22754 ft 437 kts 339°
2026-04-23 23:25 39.17626 -74.83035 21964 ft 432 kts 341°
2026-04-23 23:25 39.20510 -74.84091 21115 ft 428 kts 341°
2026-04-23 23:25 39.23353 -74.85163 20191 ft 425 kts 340°
2026-04-23 23:25 39.26165 -74.86238 19467 ft 419 kts 340°
2026-04-23 23:26 39.28918 -74.87296 18802 ft 413 kts 340°
2026-04-23 23:26 39.31693 -74.88363 18047 ft 408 kts 340°
2026-04-23 23:26 39.34394 -74.89391 17195 ft 404 kts 340°
2026-04-23 23:26 39.37083 -74.90412 16390 ft 399 kts 340°
2026-04-23 23:27 39.39697 -74.91400 15632 ft 395 kts 340°
2026-04-23 23:27 39.42332 -74.92395 14690 ft 383 kts 340°
2026-04-23 23:27 39.43984 -74.93015 14031 ft 375 kts 340°
2026-04-23 23:27 39.47155 -74.94198 13258 ft 338 kts 340°
2026-04-23 23:28 39.49354 -74.95028 12702 ft 338 kts 341°
2026-04-23 23:28 39.51620 -74.95895 12126 ft 338 kts 340°
2026-04-23 23:28 39.53779 -74.96985 11544 ft 333 kts 331°
2026-04-23 23:28 39.55739 -74.98546 11027 ft 318 kts 323°
2026-04-23 23:29 39.57438 -75.00137 10748 ft 288 kts 323°
2026-04-23 23:29 39.58992 -75.01580 10439 ft 265 kts 323°
2026-04-23 23:29 39.59964 -75.02481 10246 ft 254 kts 323°
2026-04-23 23:29 39.61397 -75.03813 10010 ft 255 kts 323°
2026-04-23 23:30 39.62837 -75.05151 9849 ft 254 kts 323°
2026-04-23 23:30 39.64274 -75.06488 9711 ft 255 kts 323°
2026-04-23 23:30 39.66302 -75.08094 9525 ft 260 kts 336°
2026-04-23 23:30 39.68045 -75.08717 9398 ft 263 kts 349°
2026-04-23 23:31 39.69886 -75.08747 9263 ft 268 kts
2026-04-23 23:31 39.71144 -75.08503 9165 ft 271 kts
2026-04-23 23:31 39.72902 -75.07655 9048 ft 278 kts 24°
2026-04-23 23:31 39.74463 -75.06115 8930 ft 285 kts 40°
2026-04-23 23:32 39.75795 -75.04219 8804 ft 286 kts 41°
2026-04-23 23:32 39.77136 -75.02303 8683 ft 285 kts 41°
2026-04-23 23:32 39.78478 -75.00393 8210 ft 289 kts 42°
2026-04-23 23:32 39.79806 -74.98505 7852 ft 287 kts 42°
2026-04-23 23:33 39.81197 -74.96532 7404 ft 289 kts 43°
2026-04-23 23:33 39.82536 -74.94617 7040 ft 285 kts 45°
2026-04-23 23:33 39.83602 -74.92433 6521 ft 289 kts 63°
2026-04-23 23:33 39.84196 -74.89961 5986 ft 291 kts 72°
2026-04-23 23:34 39.84734 -74.87393 5444 ft 288 kts 68°
2026-04-23 23:34 39.85771 -74.85304 4958 ft 274 kts 35°
2026-04-23 23:34 39.87447 -74.84358 4446 ft 261 kts 360°
2026-04-23 23:34 39.89052 -74.84861 4256 ft 238 kts 323°
2026-04-23 23:35 39.90008 -74.86487 4192 ft 221 kts 290°
2026-04-23 23:35 39.90377 -74.88401 4177 ft 210 kts 282°
2026-04-23 23:35 39.90651 -74.90237 4122 ft 206 kts 282°
2026-04-23 23:35 39.90922 -74.92074 4055 ft 204 kts 282°
2026-04-23 23:36 39.91187 -74.93882 3996 ft 204 kts 282°
2026-04-23 23:36 39.91455 -74.95699 3924 ft 203 kts 284°
2026-04-23 23:36 39.91861 -74.97463 3861 ft 204 kts 286°
2026-04-23 23:36 39.92008 -74.99293 3550 ft 209 kts 267°
2026-04-23 23:37 39.91713 -75.01125 3242 ft 209 kts 258°
2026-04-23 23:37 39.91355 -75.02928 2979 ft 205 kts 258°
2026-04-23 23:37 39.91010 -75.04675 2706 ft 194 kts 258°
2026-04-23 23:37 39.90684 -75.06323 2435 ft 181 kts 258°
2026-04-23 23:38 39.90384 -75.07841 2204 ft 166 kts 258°
2026-04-23 23:38 39.90102 -75.09270 2002 ft 160 kts 258°
2026-04-23 23:38 39.89840 -75.10600 1800 ft 159 kts 258°
2026-04-23 23:38 39.89566 -75.11985 1592 ft 157 kts 257°
2026-04-23 23:39 39.89303 -75.13313 1393 ft 156 kts 257°
2026-04-23 23:39 39.89037 -75.14653 1204 ft 148 kts 257°
2026-04-23 23:39 39.88781 -75.15934 969 ft 145 kts 257°
2026-04-23 23:39 39.88534 -75.17201 803 ft 145 kts 257°
2026-04-23 23:40 39.88280 -75.18460 633 ft 143 kts 259°
2026-04-23 23:40 39.88036 -75.19711 443 ft 144 kts 258°
2026-04-23 23:40 39.87788 -75.20962 278 ft 144 kts 258°
2026-04-23 23:40 39.87539 -75.22198 122 ft 141 kts 259°
2026-04-23 23:41 39.87298 -75.23401 28 ft 130 kts 258°
2026-04-23 23:41 39.87115 -75.24340 28 ft 83 kts 256°
2026-04-23 23:41 39.87012 -75.24858 28 ft 36 kts 256°
2026-04-23 23:41 39.87016 -75.25150 30 ft 19 kts 292°
2026-04-23 23:42 39.87090 -75.25219 29 ft 12 kts
2026-04-23 23:42 39.87139 -75.25142 27 ft 12 kts 73°
2026-04-23 23:42 39.87162 -75.25033 27 ft 13 kts 76°
2026-04-23 23:42 39.87210 -75.24960 25 ft 10 kts 343°
2026-04-23 23:43 39.87282 -75.24991 27 ft 12 kts 345°
2026-04-23 23:43 39.87330 -75.25066 28 ft 12 kts 295°
2026-04-23 23:43 39.87343 -75.25103 27 ft 0 kts 296°